Location: Newark
(57.0000°N, 24.5500°E)
Time: 00:03:46
(UTC+00:00)

Envisat - Visible Passes

Search period start: 21 January 2020 00:00
Search period end: 31 January 2020 00:00
Orbit: 764 x 766 km, 98.1° (Epoch: 20 January)

Date Brightness Start Highest point End Pass type
(mag) Time Alt. Az. Time Alt. Az. Time Alt. Az.
21 Jan 6.1 03:40:21 10° NE 03:43:20 15° E 03:46:19 10° ESE visible
21 Jan 3.3 05:18:09 10° NNE 05:23:17 74° ESE 05:28:22 10° S visible
21 Jan 4.4 16:41:27 10° SSW 16:46:14 40° W 16:51:03 10° NNW visible
22 Jan 4.4 04:41:30 10° NNE 04:46:20 41° E 04:51:08 10° SSE visible
22 Jan 3.3 16:04:12 10° S 16:09:17 73° WSW 16:14:24 10° NNW visible
22 Jan 6.0 17:46:20 10° WSW 17:49:14 15° W 17:52:10 10° NW visible
23 Jan 5.5 04:05:08 10° NE 04:09:12 23° E 04:13:13 10° SE visible
23 Jan 3.0 05:43:41 10° NNE 05:48:47 75° WNW 05:53:51 10° SSW visible
23 Jan 3.0 15:27:28 10° SSE 15:32:30 65° ENE 15:37:33 10° NNW visible
23 Jan 5.2 17:07:40 10° SSW 17:11:57 27° W 17:16:16 10° NNW visible
24 Jan 6.2 03:29:35 10° NE 03:31:51 13° E 03:34:08 10° ESE visible
24 Jan 3.6 05:06:53 10° NNE 05:11:57 62° ESE 05:17:00 10° S visible
24 Jan 4.1 16:29:57 10° S 16:34:52 48° W 16:39:49 10° NNW visible
25 Jan 4.8 04:30:18 10° NNE 04:34:57 35° E 04:39:35 10° SSE visible
25 Jan 3.1 15:52:52 10° SSE 15:57:58 86° WSW 16:03:06 10° NNW visible
25 Jan 5.8 17:34:21 10° SW 17:37:47 18° W 17:41:14 10° NW visible
26 Jan 5.8 03:54:05 10° NE 03:57:45 20° E 04:01:25 10° SE visible
26 Jan 3.0 05:32:22 10° NNE 05:37:29 88° WNW 05:42:36 10° SSW visible
26 Jan 3.1 15:16:17 10° SE 15:21:14 55° ENE 15:26:13 10° N visible
26 Jan 4.9 16:56:02 10° SSW 17:00:33 32° W 17:05:06 10° NNW visible
27 Jan 6.4 03:19:22 10° ENE 03:20:21 10° ENE 03:21:21 10° E visible
27 Jan 3.9 04:55:37 10° NNE 05:00:37 52° E 05:05:35 10° S visible
27 Jan 3.7 16:18:31 10° S 16:23:31 57° W 16:28:33 10° NNW visible
27 Jan 6.3 18:01:57 10° W 18:03:42 12° W 18:05:28 10° WNW visible
28 Jan 5.1 04:19:06 10° NNE 04:23:33 29° E 04:27:59 10° SSE visible
28 Jan 3.0 15:41:35 10° SSE 15:46:40 81° ENE 15:51:47 10° NNW visible
28 Jan 5.6 17:22:29 10° SW 17:26:20 21° W 17:30:13 10° NW visible
29 Jan 6.0 03:43:06 10° NE 03:46:18 17° E 03:49:29 10° ESE visible
29 Jan 3.2 05:21:04 10° NNE 05:26:12 79° ESE 05:31:17 10° SSW visible
29 Jan 4.6 16:44:26 10° SSW 16:49:09 38° W 16:53:55 10° NNW visible
30 Jan 4.3 04:44:22 10° NNE 04:49:16 44° E 04:54:07 10° S visible
30 Jan 3.4 16:07:07 10° S 16:12:11 68° WSW 16:17:17 10° NNW visible
30 Jan 6.1 17:49:33 10° WSW 17:52:12 14° W 17:54:52 10° NW visible
